Flag for Russia Weather past 2 weeks in Khanty-Mansiysk, Russia

Now
64 °F

Sunny.


Feels Like: 64 °F
Forecast: 55 / 77 °F
Wind: 3 mph from Southeast

Location: Hanty-Mansijsk

Current Time: Aug 20, 2014 at 8:43:43 PM

Latest Report: Aug 20, 2014 at 8:00 PM


Visibility: 10 mi

Pressure: 30.15 "Hg

Humidity: 68%

Dew point: 54 °F

Location of Khanty-MansiyskLocation

Historic Weather in Khanty-Mansiysk — Graph

°F

Khanty-Mansiysk temperature yesterday

Maximum temperature yesterday: 70 °F (at 4:00 PM)
Minimum temperature yesterday: 55 °F (at 11:30 PM)
Average temperature yesterday: 63 °F

Past Weeks' High & Low Weather Summary

 TemperatureHumidityPressure
High81 °F (Aug 9, 4:30 PM)100% (Aug 9, 6:00 AM)30.27 "Hg (Aug 9, 6:00 AM)
Low46 °F (Aug 11, 6:30 AM)26% (Aug 13, 2:00 PM)29.45 "Hg (Aug 17, 9:00 PM)
Average61 °F73%29.81 "Hg
* Reported Aug 5 7:00 PM — Aug 20 7:30 PM, Khanty-Mansiysk, Weather by CustomWeather, © 2014

Note: Actual official high and low records may vary slightly from our data, if they occured in-between our weather recording intervals... More about our weather records

Advertising

Khanty-Mansiysk weather history for previous 24 hours

 ConditionsComfort  
Time TempWeatherWind HumidityBarometerVisibility
7:30 PM
Aug 20
66 °FSunny.3 mph64%30.15 "Hg10 mi
7:00 PM66 °FSunny.3 mph60%30.15 "Hg10 mi
6:30 PM66 °FSunny.3 mph60%30.18 "Hg10 mi
6:00 PM66 °FSunny.3 mph56%30.18 "Hg10 mi
5:30 PM70 °FPassing clouds.6 mph46%30.18 "HgN/A
5:00 PM70 °FSunny.3 mph46%30.18 "Hg10 mi
4:30 PM68 °FPassing clouds.3 mph49%30.21 "HgN/A
4:00 PM68 °FSunny.3 mph53%30.21 "Hg10 mi
3:30 PM68 °FSunny.3 mph49%30.21 "Hg10 mi
3:00 PM68 °FPassing clouds.3 mph46%30.21 "HgN/A
2:30 PM68 °FSunny.1 mph46%30.24 "Hg10 mi
2:00 PM66 °FPassing clouds.6 mph49%30.24 "HgN/A
1:30 PM66 °FPassing clouds.3 mph49%30.24 "HgN/A
1:00 PM64 °FSunny.1 mph49%30.24 "Hg10 mi
12:30 PM64 °FSunny.No wind46%30.24 "Hg10 mi
12:00 PM63 °FSunny.1 mph52%30.24 "Hg10 mi
11:30 AM63 °FSunny.No wind52%30.24 "Hg10 mi
11:00 AM61 °FSunny.1 mph55%30.27 "Hg10 mi
10:30 AM59 °FSunny.1 mph59%30.24 "Hg10 mi
10:00 AM57 °FSunny.3 mph63%30.24 "Hg10 mi
9:30 AM55 °FSunny.1 mph67%30.24 "Hg10 mi
8:30 AM54 °FSunny.1 mph72%30.24 "Hg10 mi
8:00 AM54 °FSunny.1 mph72%30.24 "Hg10 mi
7:30 AM52 °FSunny.1 mph82%30.21 "Hg10 mi
7:00 AM48 °FSunny.No wind94%30.21 "Hg10 mi
6:30 AM48 °FClear.1 mph87%30.21 "Hg10 mi
6:00 AM48 °FClear.1 mph87%30.18 "Hg10 mi
5:30 AM48 °FPassing clouds.No wind87%30.18 "Hg5 mi
5:00 AM48 °FClear.No wind87%30.18 "Hg10 mi
4:30 AM50 °FClear.1 mph82%30.15 "Hg10 mi
4:00 AM50 °FClear.No wind88%30.15 "Hg10 mi
3:30 AM54 °FClear.No wind77%30.12 "Hg10 mi
3:00 AM52 °FClear.No wind88%30.12 "Hg10 mi
2:30 AM54 °FClear.No wind82%30.09 "Hg10 mi
1:30 AM55 °FClear.1 mph77%30.09 "Hg10 mi
1:00 AM55 °FClear.1 mph77%30.07 "Hg10 mi
12:30 AM55 °FClear.3 mph82%30.04 "Hg10 mi
12:00 AM55 °FClear.3 mph82%30.04 "Hg10 mi
11:30 PM
Aug 19
55 °FClear.6 mph82%30.04 "Hg10 mi
11:00 PM57 °FClear.3 mph77%30.01 "Hg10 mi
10:30 PM59 °FClear.3 mph68%30.01 "Hg10 mi
10:00 PM59 °FSunny.1 mph68%30.01 "Hg10 mi
9:30 PM61 °FSunny.3 mph63%29.98 "Hg10 mi
9:00 PM63 °FSunny.3 mph59%29.98 "Hg10 mi
8:30 PM63 °FScattered clouds.6 mph59%29.95 "HgN/A
8:00 PM64 °FScattered clouds.6 mph56%29.95 "HgN/A
Weather by CustomWeather, © 2014

See weather overviewHow to use our weather pages